World > North America > United States > North Carolina

Little Horse Creek, North Carolina Regional Weather

Lat: 36.53N, Lon: 81.55W
Wx Zone: NCZ001
Warning FLW WEATHER ALERT - (More Info. Click Here) Warning
Feedback

Little Horse Creek, NC Regional Weather

Expires:201907211300;;403285
ASUS42 KRAH 211210
RWRRAH
NORTH CAROLINA WEATHER ROUNDUP
NATIONAL WEATHER SERVICE RALEIGH NC
800 AM EDT SUN JUL 21 2019

NOTE: "FAIR" INDICATES FEW OR NO CLOUDS BELOW 12,000 FEET WITH NO
SIGNIFICANT WEATHER AND/OR OBSTRUCTIONS TO VISIBILITY.


NCZ001-053-055-056-065-067-211300-
WESTERN NORTH CAROLINA
  
CITY           SKY/WX    TMP DP  RH WIND       PRES   REMARKS
ASHEVILLE      CLOUDY    69  66  90 S3        30.13R                  
JEFFERSON      FOG       64  64 100 CALM      30.15S VSB<1/4          
HICKORY        FAIR      73  72  96 CALM      30.05R                  
WILKESBORO     NOT AVBL                                               
RUTHERFORDTON  FOG       70  70 100 CALM      30.07R VSB 1/4          
MOUNT AIRY     FAIR      75  72  91 CALM      30.05S                  
BOONE          FAIR      69  68  98 CALM      30.15F                  
$$
 

SKY/WX - Weather  TMP - Temperature  DP - Dew Point  RH - Relative Humidity
WIND - Wind Direction/Speed PRES - Barometric Pressure VSB - Visibility
WCI - Wind Chill Index E13G22 Wind - East Wind 13 mph/Gusts of 22 mph